カタログに戻る

TITAN 3C TRANSTAGE DEB

LostHEO
NORAD 28833·DEBRIS·🇺🇸 United States

打ち上げ Dec 21, 1965 から Cape Canaveral Space Force Station

Loading…

次のパス (今後24時間)

TLE

古いSource: Space-Track

元期: Jan 28, 2026, 18:28 UTC

1 28833U 65108CK  26028.76982112  .00000050  00000-0  00000-0 0  9993
2 28833  27.8604 239.5933 6558514 183.5075 167.3149  2.64806015 88403

AllMySatでTITAN 3C TRANSTAGE DEBをリアルタイム追跡

Download on the App Store